Location: Hilton Head Island
(32.2163°N, 80.7526°W)
Time: 21:39:14
(UTC-04:00)

Vanguard 2 Rocket - Pass Details

Date: 23 February 2026
Orbit: 553 x 3286 km, 32.9° (Epoch: 10 March)

Event Time Altitude Azimuth Distance (km) Brightness Sun altitude
Rises 16:06:47 0° 285° (WNW) 6,998 12.1 24.7°
Reaches altitude 10° 16:11:57 10° 283° (WNW) 5,714 11.8 23.7°
Maximum altitude 16:27:54 68° 206° (SSW) 2,103 9.4 20.8°
Drops below altitude 10° 16:36:56 10° 125° (SE) 3,405 9.6 19.1°
Sets 16:39:15 0° 122° (ESE) 4,104 9.9 18.6°
